Regional Weather Roundup
Issued by NWS

Home | Current Version | Previous Version | Graphics & Text | Print | Product List | Glossary On
Versions: 1 2 3 4 5 6 7 8 9 10 11 12 13 14 15 16 17 18 19 20 21 22 23 24 25 26 27 28 29 30 31 32 33 34 35 36 37 38 39 40 41 42 43 44 45 46 47 48 49 50
140
ASUS43 KOAX 231002
RWRNE

WEATHER ROUNDUP FOR NEBRASKA
NATIONAL WEATHER SERVICE OMAHA NE
500 AM CDT SUN APR 23 2017

NOTES: SATELLITE DATA IS BEING USED TO AUGMENT CLOUD COVER ABOVE
       12000 FEET.
       "FAIR" INDICATES FEW OR NO CLOUDS BELOW 12,000 FEET WITH NO
       SIGNIFICANT WEATHER AND/OR OBSTRUCTIONS TO VISIBILITY.

  * THESE STATIONS DO NOT REPORT WEATHER SUCH AS RAIN...SNOW OR FOG.

NEZ001>004-019>022-054>056-231100-
NEBRASKA PANHANDLE

CITY           SKY/WX    TMP DP  RH WIND       PRES   REMARKS
SCOTTSBLUFF    CLOUDY    46  31  55 S8        30.02F
ALLIANCE       CLOUDY    36  29  75 S10       30.03F WCI  28
CHADRON        CLOUDY    49  29  46 S20       29.96F
KIMBALL        CLEAR     35  34  96 S3        30.07F
SIDNEY         CLOUDY    32  29  88 S10       30.07F WCI  24
$$

NEZ057>060-069>072-079>082-231100-
SOUTHWEST NEBRASKA

CITY           SKY/WX    TMP DP  RH WIND       PRES   REMARKS
NORTH PLATTE   CLOUDY    35  28  75 S7        30.14F WCI  29
IMPERIAL       CLOUDY    38  31  76 S10       30.13F WCI  31
LEXINGTON      CLEAR     31  25  77 CALM      30.17S
MCCOOK         CLOUDY    35  29  78 W7        30.17R WCI  29
OGALLALA       CLOUDY    37  31  79 SW7       30.12S WCI  31
$$

NEZ005>010-023>029-035>040-094-231100-
NORTH CENTRAL NEBRASKA

CITY           SKY/WX    TMP DP  RH WIND       PRES   REMARKS
VALENTINE      CLEAR     44  28  53 SW14      30.06F
AINSWORTH      CLEAR     42  32  68 S12       30.09F
BROKEN BOW     CLEAR     31  24  75 CALM      30.13F
O`NEILL        CLEAR     40  31  69 S6        30.12F
ORD            CLEAR     38  28  67 SW8       30.14F WCI  32
THEDFORD       CLEAR     37  29  73 SW3       30.12F
$$

NEZ041-046>049-061>064-073>077-083>087-231100-
SOUTH CENTRAL NEBRASKA

CITY           SKY/WX    TMP DP  RH WIND       PRES   REMARKS
GRAND ISLAND   CLEAR     40  28  62 SW3       30.18S
AURORA         CLEAR     37  26  63 SW6       30.18S WCI  33
HASTINGS       CLEAR     41  28  60 SW3       30.19S
HEBRON         CLEAR     32  30  92 CALM      30.18S
HOLDREGE       CLEAR     40  28  61 SW3       30.17S
KEARNEY *      CLEAR     39  27  60 SW7       30.18S WCI  34
YORK           CLEAR     39  28  65 MISG      30.18S
$$

NEZ011>018-030>034-042>045-231100-
NORTHEAST NEBRASKA

CITY           SKY/WX    TMP DP  RH WIND       PRES   REMARKS
NORFOLK        CLEAR     40  33  76 CALM      30.15F
ALBION         CLEAR     42  30  62 S3        30.16F
BLAIR          CLEAR     48  33  55 CALM      30.16F
FREMONT        CLEAR     39  37  90 CALM      30.17S
TEKAMAH        CLEAR     41  37  86 S3        30.16S
WAYNE          CLEAR     37  32  80 S5        30.15F WCI  34
$$

NEZ050>053-065>068-078-088>093-231100-
SOUTHEAST NEBRASKA

CITY           SKY/WX    TMP DP  RH WIND       PRES   REMARKS
LINCOLN        CLEAR     34  31  88 N5        30.19S WCI  30
OMAHA EPPLEY   CLEAR     43  35  73 CALM      30.17S
BEATRICE       CLEAR     36  34  92 CALM      30.18S
FALLS CITY     CLEAR     39  33  79 NW3       30.17F
NEBRASKA CITY  CLEAR     43  29  58 W8        30.17S
PLATTSMOUTH    CLEAR     48  24  38 CALM      30.17S
$$

NEZ044-045-051>053-067-231100-
OMAHA AREA

CITY           SKY/WX    TMP DP  RH WIND       PRES   REMARKS
OMAHA EPPLEY   CLEAR     43  35  73 CALM      30.17S
BLAIR          CLEAR     48  33  55 CALM      30.16F
FREMONT        CLEAR     39  37  90 CALM      30.17S
MILLARD        CLEAR     41  38  91 CALM      30.17S
OFFUTT AFB     CLEAR     34  32  93 CALM      30.17R
PLATTSMOUTH    CLEAR     48  24  38 CALM      30.17S
WAHOO          FAIR      38  34  85 CALM      30.17S
$$




USA.gov is the U.S. government's official web portal to all federal, state and local government web resources and services.